This demonstration page uses our WeatherBlox Daily Observations layout. Learn more.

Left ArrowRight Arrow

36.17497, -115.13722

Hourly Observations for September 27, 2015

Temp ( °F °C ) Dew Point ( °F °C ) Humidity (%) Winds ( mph kmh ) Pressure ( in mb ) Visibility ( mi km ) Precip ( " mm )
12:53 am 00:53 Clear 81 27.2 43 6.1 26 26 WNW 5 7 29.80 1009 10 16 N/A
1:53 am 01:53 Clear 79 26.1 44 6.7 29 29 N N/A 29.81 1010 10 16 N/A
2:53 am 02:53 Clear 78 25.6 45 7.2 31 31 NW 5 7 29.80 1009 10 16 N/A
3:53 am 03:53 Clear 77 25 45 7.2 32 32 WNW 7 11 29.80 1009 10 16 N/A
4:53 am 04:53 Clear 76 24.4 46 7.8 35 35 NW 5 7 29.80 1009 10 16 N/A
5:53 am 05:53 Clear 76 24.4 46 7.8 35 35 WNW 6 9 29.81 1010 10 16 N/A
6:53 am 06:53 Sunny 74 23.3 46 7.8 37 37 N N/A 29.84 1011 10 16 N/A
7:53 am 07:53 Sunny 79 26.1 47 8.3 32 32 NNW 5 7 29.86 1011 10 16 N/A
8:53 am 08:53 Sunny 83 28.3 47 8.3 28 28 N N/A 29.87 1011 10 16 N/A
9:53 am 09:53 Sunny 88 31.1 46 7.8 23 23 E 3 6 29.87 1011 10 16 N/A
10:53 am 10:53 Sunny 90 32.2 47 8.3 23 23 VRB 7 11 29.85 1011 10 16 N/A
11:53 am 11:53 Sunny 94 34.4 47 8.3 20 20 SE 10 17 29.83 1010 10 16 N/A
12:53 pm 12:53 Sunny 97 36.1 48 8.9 19 19 SSE 16 26 29.79 1009 10 16 N/A
1:53 pm 13:53 Sunny 99 37.2 48 8.9 18 18 SSE 12 19 29.76 1008 10 16 N/A
2:53 pm 14:53 Mostly Sunny 99 37.2 47 8.3 17 17 SSW 13 20 29.73 1007 10 16 N/A
3:10 pm 15:10 Sunny 100 38 46 8 16 16 SW 10 17 29.56 1001 10 16 N/A
3:53 pm 15:53 Sunny 99 37.2 47 8.3 17 17 S 10 17 29.72 1007 10 16 N/A
4:53 pm 16:53 Sunny 98 36.7 42 5.6 15 15 WNW 9 15 29.72 1007 10 16 N/A
5:53 pm 17:53 Sunny 97 36.1 40 4.4 14 14 W 10 17 29.72 1007 10 16 N/A
6:53 pm 18:53 Clear 96 35.6 41 5 15 15 WSW 12 19 29.73 1007 10 16 N/A
7:53 pm 19:53 Clear 94 34.4 42 5.6 17 17 W 9 15 29.75 1007 10 16 N/A
8:53 pm 20:53 Clear 92 33.3 42 5.6 18 18 WSW 7 11 29.75 1008 10 16 N/A
9:53 pm 21:53 Clear 89 31.7 43 6.1 20 20 S 9 15 29.76 1008 10 16 N/A
10:53 pm 22:53 Clear 89 31.7 44 6.7 21 21 SW 9 15 29.77 1008 10 16 N/A
11:53 pm 23:53 Clear 88 31.1 45 7.2 22 22 SW 9 15 29.77 1008 10 16 N/A

Powered by AerisWeather